Wind_Speed
17 17 16 15 16 16 16 16 15 15 15 15 14 13 12 11 11 11 12 12 12 12 11 11 11 11 11 11 10 10 9 9 9 8 9 9 9 9 8 9 10 10 10 10 10 11 11 11 10 9 8 7 7 8 7 8 9 10 10 10 12 15 18 19 14 9 8 8 7 7 6 5 7 8 6 1 1 3 8 4 4 1 2 3 4
17 16 16 16 17 17 18 19 18 16 17 17 16 15 14 13 12 12 12 12 12 11 11 11 11 11 11 11 10 10 9 9 8 8 8 8 8 7 7 8 8 8 8 8 9 9 9 9 8 7 6 6 7 7 5 6 9 11 11 11 11 12 15 18 17 12 9 8 7 6 4 2 6 7 4 3 1 1 7 5 4 3 3 2 2
16 16 17 17 17 18 19 20 20 18 18 19 18 17 16 15 14 13 12 12 12 11 10 11 11 11 11 10 10 10 9 9 8 8 8 8 7 6 6 6 7 7 6 7 7 7 7 8 7 6 6 6 7 7 6 9 11 10 10 10 9 10 11 14 16 16 14 10 8 9 6 2 5 8 6 4 2 2 5 4 2 3 2 3 5
14 15 16 16 16 17 18 18 20 19 18 20 19 18 18 18 17 15 12 12 12 11 11 11 11 10 10 10 10 9 9 9 8 8 8 7 7 6 6 5 5 5 4 4 5 6 6 6 5 5 5 5 5 5 4 6 8 7 6 7 6 7 7 5 8 12 13 10 8 9 7 4 5 6 5 3 1 1 4 3 1 4 3 2 7
14 14 15 17 18 18 18 19 21 21 21 21 21 20 20 19 19 16 13 12 12 12 12 12 11 11 10 10 10 10 9 9 8 8 8 7 7 6 6 5 5 4 3 3 3 4 4 4 4 5 4 4 4 4 3 3 5 5 5 7 9 8 4 4 6 6 6 7 8 7 2 4 3 3 5 3 3 3 3 1 2 3 4 4 6
13 13 14 17 19 19 21 24 25 24 22 20 19 19 19 18 19 17 14 14 14 12 13 12 12 12 11 10 10 9 9 8 8 8 8 7 7 7 7 6 6 5 4 4 3 3 3 3 4 4 3 3 3 4 5 3 4 5 6 9 11 9 6 2 4 3 3 4 6 5 1 3 1 3 2 1 4 6 5 0 3 4 6 7 7
12 12 11 14 16 17 20 23 22 20 19 18 18 20 20 18 17 16 14 13 13 12 13 12 12 12 11 10 10 9 9 8 8 9 8 7 7 7 6 6 6 5 5 5 4 4 4 4 4 5 4 3 3 3 4 3 2 3 5 8 9 8 5 1 4 3 3 1 1 3 1 2 3 2 3 5 5 3 2 3 3 5 7 7 8
12 12 10 10 11 13 16 14 11 10 12 13 11 10 12 13 12 13 13 13 12 12 12 12 12 11 9 8 7 6 6 4 3 4 6 6 7 7 6 6 6 5 4 4 4 4 3 5 4 3 4 4 5 5 4 4 2 0 0 2 3 3 3 0 2 2 1 4 2 1 1 2 4 7 5 4 3 1 3 3 3 6 6 7 9
9 10 11 10 9 11 13 12 11 11 12 11 7 3 7 8 8 8 8 10 11 12 12 11 11 10 9 7 6 5 4 3 4 4 5 7 8 9 8 6 5 4 5 6 7 7 6 7 6 4 4 5 7 8 7 6 4 3 2 2 1 1 0 1 2 3 4 5 4 1 3 5 4 7 7 2 1 2 3 4 5 6 7 10 11
7 6 8 8 8 11 13 12 14 13 11 11 11 10 12 12 12 9 5 6 8 10 11 11 10 9 7 5 3 3 3 2 5 6 7 7 7 8 7 7 8 8 9 11 12 10 8 6 6 8 8 7 9 10 8 8 7 5 5 4 3 3 3 2 4 5 5 6 7 5 3 7 8 1 2 1 1 1 1 3 4 7 9 11 11
5 5 4 5 8 11 11 12 13 12 11 11 12 12 12 13 13 12 8 7 8 8 10 10 8 7 6 4 5 5 4 7 10 10 8 7 8 8 5 5 9 12 12 14 14 12 10 9 8 9 10 10 11 11 10 10 10 9 8 7 7 6 5 4 2 3 4 5 7 8 6 6 8 6 4 4 4 5 5 5 6 9 10 10 10
6 5 3 5 8 9 9 10 10 9 8 8 8 9 10 10 9 9 9 10 11 10 8 7 6 5 5 6 7 9 11 15 17 17 15 12 12 12 8 6 9 11 11 13 13 9 10 12 11 9 9 10 12 12 10 8 9 10 10 9 8 8 8 7 5 3 1 2 5 8 8 5 5 5 3 3 5 6 7 7 8 9 10 11 11
7 6 4 5 7 8 8 8 8 8 7 6 6 5 6 7 7 8 10 13 14 13 11 9 7 4 4 6 8 9 12 15 18 19 17 14 15 16 13 11 13 13 11 10 10 9 9 11 11 9 8 8 9 8 6 4 4 6 9 10 10 10 10 9 9 7 5 3 3 6 7 5 3 3 2 4 7 9 10 9 8 9 11 12 14
8 7 6 6 7 8 8 8 8 8 7 7 7 6 5 6 7 7 10 13 15 15 15 13 10 7 4 5 7 8 10 12 15 16 15 15 16 16 13 12 13 12 9 6 8 10 11 11 11 10 9 7 6 5 5 4 4 3 4 6 8 10 11 12 12 12 11 10 8 5 4 3 1 1 3 6 8 8 8 8 9 11 14 16 18
12 11 10 10 9 9 8 7 7 7 7 8 8 7 8 9 10 10 12 14 14 15 15 14 13 11 9 8 9 12 14 14 14 14 13 14 13 11 11 11 10 9 7 7 8 9 10 10 11 12 10 8 7 6 5 4 4 3 2 1 4 7 9 9 10 11 10 10 9 7 6 6 4 3 6 8 9 8 7 9 11 14 16 18 18
13 14 15 14 12 10 9 6 5 5 7 8 9 10 10 9 10 11 11 11 10 11 12 12 13 12 11 12 13 15 16 16 14 13 12 11 10 9 10 9 9 10 10 9 9 10 10 9 11 14 12 10 9 8 6 4 4 4 4 4 5 7 6 5 6 7 8 7 7 8 8 7 6 7 9 9 10 10 10 12 12 12 13 16 16
16 16 16 15 14 13 12 10 8 6 4 2 3 8 9 7 7 8 9 9 9 10 10 11 12 12 12 14 14 13 14 16 14 12 11 11 10 11 11 9 11 12 11 10 10 13 12 9 10 13 11 8 8 6 5 5 5 5 5 7 8 7 5 5 5 6 7 8 8 8 8 8 9 10 10 11 11 11 12 12 10 9 10 12 13
19 18 18 17 15 13 13 13 12 10 10 10 8 5 4 4 5 6 6 7 9 11 11 11 11 11 13 14 12 11 13 15 13 12 12 12 12 13 13 12 13 13 14 10 9 12 13 9 7 9 9 7 5 3 2 3 5 4 4 7 9 8 6 7 6 5 7 10 10 10 11 10 11 11 12 12 12 12 12 10 7 7 8 9 11
16 16 17 16 15 13 12 13 13 13 14 14 13 10 7 4 1 4 5 5 8 10 9 8 9 11 13 13 13 13 12 13 15 15 14 14 13 15 15 15 12 15 17 12 9 10 11 10 8 7 7 4 2 2 2 3 5 4 4 5 6 6 7 7 5 2 2 5 7 8 10 11 11 12 11 11 11 11 10 8 6 6 7 8 11
12 12 13 13 12 11 11 12 12 12 14 14 13 11 10 10 9 5 4 6 9 10 11 11 11 12 14 17 19 19 15 15 18 17 16 17 16 17 19 16 11 13 17 14 12 10 9 10 10 7 6 4 3 3 4 4 5 4 3 4 6 8 6 4 4 3 1 2 5 8 10 11 11 10 10 11 11 12 12 10 9 9 9 9 10
11 12 13 13 12 11 10 10 10 10 11 12 11 11 10 11 13 11 7 7 9 10 11 13 14 15 18 20 21 20 16 15 17 18 17 18 16 18 20 15 9 10 15 14 14 12 10 10 10 8 6 5 5 5 5 6 5 4 4 6 9 10 8 4 3 3 3 5 7 9 9 9 10 10 12 12 10 11 13 11 9 9 11 11 15
11 12 13 12 12 12 11 11 11 10 10 9 9 10 10 11 13 13 12 10 11 11 10 9 12 14 16 17 18 17 15 15 17 18 18 18 17 18 19 13 6 9 14 15 16 15 12 11 12 10 8 7 7 7 7 7 6 4 3 4 4 5 3 1 2 5 6 5 6 8 9 9 10 10 10 8 5 5 3 4 6 8 10 13 17
10 11 12 12 13 13 13 13 12 11 10 10 10 11 11 11 12 13 14 13 13 13 13 10 11 13 13 15 17 16 16 16 17 18 18 18 17 16 16 13 8 9 11 11 15 18 15 14 13 11 10 9 9 9 9 8 6 4 2 1 2 3 4 3 3 5 6 5 6 8 9 10 10 8 7 6 5 4 4 6 9 12 14 14 15
12 12 12 13 13 13 13 14 13 13 12 12 12 12 11 12 13 14 15 16 15 15 15 14 13 13 13 13 16 17 18 19 19 19 19 20 18 17 16 13 10 10 9 8 14 19 18 15 13 12 12 12 11 10 10 8 6 4 2 3 5 5 4 3 3 4 5 5 6 8 8 7 6 6 6 7 10 12 13 14 13 13 15 15 15
13 13 13 12 13 14 14 15 15 14 14 14 14 14 14 14 15 15 15 17 17 16 16 16 16 16 16 16 14 13 15 17 18 19 21 21 19 18 17 14 13 13 9 9 15 18 17 14 13 13 13 13 12 11 10 8 6 3 2 3 3 2 2 2 2 3 4 5 7 8 7 5 5 5 8 11 13 13 13 13 13 14 16 17 17
14 13 13 13 14 14 15 16 16 16 16 16 15 16 16 15 16 16 16 16 17 17 17 18 17 15 15 15 14 12 9 11 14 16 19 21 22 21 17 14 14 13 10 12 17 18 15 13 13 14 15 13 12 11 9 6 4 2 1 1 2 1 0 1 2 4 5 6 7 7 5 4 4 7 10 11 10 11 12 14 15 16 16 17 18
14 14 14 14 15 15 15 16 16 16 16 16 16 16 17 17 17 17 17 17 17 18 19 18 17 17 15 13 13 13 9 9 12 14 17 19 19 19 17 14 12 11 12 17 19 18 15 14 14 15 15 13 11 10 7 4 3 3 3 4 4 3 2 2 3 5 5 5 6 5 5 5 6 8 9 9 10 11 12 13 15 15 16 17 18
14 14 14 15 15 16 16 17 18 18 17 17 17 18 18 19 19 17 16 15 12 10 10 11 9 9 8 6 5 6 6 6 9 13 16 18 15 13 12 12 11 10 14 18 19 17 16 16 16 15 14 12 11 8 5 4 5 5 4 4 4 3 4 2 3 3 2 2 4 5 7 7 7 7 9 9 10 11 12 13 14 15 16 17 17
16 15 14 14 14 14 16 17 17 17 17 17 18 19 18 19 19 19 19 16 13 12 12 12 11 10 9 7 4 3 4 6 7 9 12 19 20 16 12 12 13 13 15 17 17 17 17 17 17 16 15 13 10 7 6 7 8 7 5 4 3 3 3 1 1 1 1 2 5 6 7 7 7 7 9 9 10 11 12 13 15 15 16 16 16
16 16 16 15 15 16 17 17 16 16 16 17 18 19 20 21 21 21 23 23 23 25 24 19 16 14 12 10 9 8 7 7 9 11 13 19 24 23 18 15 14 14 15 16 16 17 18 19 18 17 15 14 12 11 12 11 10 9 8 5 3 2 2 1 1 1 2 4 6 6 6 6 7 7 8 9 10 12 13 14 15 16 16 16 16
13 14 14 16 18 19 18 17 18 18 18 18 18 19 22 23 22 21 22 23 24 26 27 24 20 19 18 17 17 16 15 13 11 14 19 22 23 23 21 21 20 22 22 21 19 19 20 20 18 17 16 15 14 14 15 13 11 10 9 6 5 4 2 2 3 3 3 4 5 6 6 7 7 7 8 9 10 13 14 15 15 15 15 15 15
12 12 13 14 17 18 17 16 17 18 18 19 19 18 20 21 20 20 21 20 19 20 23 24 21 19 18 16 15 15 15 14 11 12 20 25 23 21 23 26 29 31 30 27 24 23 22 21 19 17 17 17 16 14 13 12 10 9 8 8 8 6 4 4 3 3 3 3 4 6 7 6 6 7 9 10 11 13 14 14 14 14 15 15 16
10 10 11 12 13 15 16 16 16 16 17 18 18 18 18 19 19 20 21 21 21 20 20 20 20 19 17 15 13 11 13 16 15 14 19 24 25 25 26 29 31 31 30 27 25 24 22 20 19 19 18 16 14 13 13 11 9 8 7 6 7 7 6 3 1 1 1 2 4 6 6 6 7 9 10 11 11 12 13 13 15 15 15 14 14
9 10 10 11 11 12 13 14 14 14 15 16 17 18 19 17 17 18 19 20 21 21 21 21 21 19 19 18 16 12 13 16 18 17 16 18 22 25 26 28 31 32 30 27 24 23 22 21 20 20 17 14 14 13 11 10 10 9 8 6 5 6 5 2 2 1 0 2 5 5 6 7 9 8 8 9 11 13 14 14 14 14 13 13 14
9 10 10 9 10 10 11 12 13 13 14 14 15 17 18 19 20 19 17 16 18 19 19 19 18 17 18 20 19 14 12 14 17 19 17 15 18 23 22 21 24 26 26 23 19 19 22 21 18 18 16 14 14 13 11 11 10 9 9 8 5 4 4 3 2 1 3 4 4 5 7 8 8 7 8 9 11 12 13 12 11 11 12 13 15
10 10 10 10 10 11 12 12 12 13 14 14 16 18 20 21 22 21 20 18 17 17 18 16 15 16 16 16 15 13 11 11 13 15 15 14 16 19 18 18 18 15 15 13 8 10 16 17 16 16 15 13 13 13 11 11 11 9 9 8 6 4 4 4 2 1 3 4 4 6 9 9 9 9 8 9 10 10 10 11 11 12 13 13 14
9 9 9 10 11 11 12 12 12 13 15 17 18 19 19 18 19 20 19 19 18 17 17 16 14 14 14 12 11 10 11 10 10 11 12 13 15 17 19 23 21 12 7 4 3 5 14 17 14 15 16 14 12 12 11 10 10 9 8 7 5 5 4 2 2 1 2 3 4 6 9 10 11 11 10 10 10 10 10 10 11 12 13 14 16
8 8 8 10 12 11 11 12 12 14 15 16 17 17 17 17 18 19 19 19 18 18 18 16 13 12 11 10 9 10 11 11 10 11 12 13 14 15 19 23 23 17 12 6 4 11 16 14 10 13 16 14 12 12 12 10 8 8 7 5 5 5 3 1 2 2 2 4 5 7 9 9 10 12 11 11 11 10 10 11 12 14 16 17 17
7 8 8 10 11 11 11 12 12 13 14 15 15 15 16 17 17 18 19 17 16 15 15 13 12 12 12 9 10 11 13 13 13 13 14 15 15 16 17 18 18 18 16 12 7 9 12 9 9 12 14 12 11 12 11 9 7 7 6 5 4 5 2 2 2 4 3 5 6 7 9 9 10 11 11 11 11 11 12 12 14 15 16 17 17
8 8 8 9 10 10 10 12 12 12 13 15 14 14 15 15 14 15 14 13 12 11 10 9 11 12 13 11 13 14 14 14 15 16 18 19 18 17 17 17 17 18 18 15 13 12 11 10 11 12 11 11 12 11 10 8 6 5 4 4 4 5 4 4 4 3 4 6 6 7 8 10 10 10 10 10 10 11 11 12 14 15 16 17 18
8 8 9 9 9 9 10 11 13 13 14 15 14 13 13 13 12 11 9 7 6 6 6 7 10 12 13 13 15 15 13 12 13 16 19 20 19 17 17 18 18 19 19 17 13 12 11 12 12 12 11 11 10 9 9 7 5 4 5 6 6 6 6 6 5 4 5 5 5 7 9 9 9 9 10 10 10 10 11 13 14 16 17 18 18
9 10 10 10 9 9 10 11 12 13 13 15 15 14 13 11 10 9 7 6 5 5 6 8 10 10 11 11 11 12 10 9 11 13 15 16 15 15 16 18 17 17 17 16 14 13 14 13 13 12 11 10 9 9 8 6 5 6 8 7 6 6 6 5 4 4 4 3 4 7 8 8 9 9 9 9 9 10 12 13 15 17 18 18 17
9 11 11 10 10 11 11 11 11 13 14 15 15 14 13 12 11 10 9 8 7 5 5 6 5 5 7 8 8 9 6 5 9 11 11 12 13 13 15 17 17 15 14 14 15 16 15 14 14 14 13 13 12 11 10 8 9 10 9 7 6 5 4 3 3 3 3 4 5 6 7 7 9 9 8 8 9 11 13 15 18 19 18 16 16
8 11 11 11 11 11 11 11 12 13 15 16 15 15 14 13 12 12 12 11 11 9 7 4 3 3 5 6 5 7 10 14 16 15 15 17 17 18 19 20 19 17 15 15 15 16 16 16 16 16 14 13 13 13 11 9 9 9 9 8 6 5 4 4 5 5 5 4 5 5 5 6 7 7 7 8 10 12 16 18 19 18 16 16 17
8 10 11 11 11 11 11 11 12 12 13 15 16 16 16 15 14 13 13 14 14 13 13 11 9 10 14 18 19 20 21 22 21 20 21 22 23 23 23 23 21 20 18 16 16 16 17 17 17 15 13 11 9 8 8 8 7 7 8 7 5 5 6 7 7 6 5 4 4 5 6 6 6 5 5 8 11 15 18 19 17 15 15 17 19
8 9 10 10 11 11 11 11 11 12 13 14 14 14 16 16 15 14 15 16 16 16 18 19 19 20 22 23 23 23 23 23 22 22 22 22 22 23 23 23 22 21 20 20 20 20 18 17 15 14 14 13 11 9 8 8 6 5 4 4 4 4 5 6 7 7 6 5 5 6 6 6 5 4 5 9 13 17 18 17 15 14 16 18 19
8 9 9 10 10 10 10 11 10 11 13 14 14 14 14 14 14 15 15 17 17 18 19 21 21 22 24 24 24 24 23 23 23 24 23 22 21 21 20 20 20 18 17 17 19 19 17 15 13 12 13 13 12 11 10 8 5 3 2 3 4 4 4 5 6 7 7 6 6 7 7 7 7 6 7 11 15 17 17 16 16 17 18 18 18
7 7 7 8 8 8 9 10 10 10 11 12 13 14 13 12 13 14 14 15 16 17 17 18 19 20 21 22 22 22 23 23 24 24 24 22 21 20 19 19 18 16 14 13 14 14 14 13 12 11 11 10 9 8 8 6 3 1 2 3 4 4 5 4 5 7 8 7 7 7 7 7 7 8 10 13 15 16 16 16 17 20 20 17 15
5 6 6 7 7 8 8 8 9 9 10 11 11 13 13 12 13 13 12 13 14 14 15 16 16 17 18 19 20 20 21 22 22 22 22 21 20 18 17 16 14 13 12 10 9 9 10 10 10 10 10 8 6 5 4 2 1 2 3 4 4 5 5 4 5 7 8 8 7 7 8 8 8 9 11 13 14 15 15 16 18 21 19 15 13
6 6 7 6 6 7 7 8 8 8 8 9 10 11 12 12 13 13 13 14 13 14 14 15 15 16 17 18 18 19 19 20 20 21 20 20 18 16 15 15 14 13 12 11 11 10 9 8 8 9 10 8 5 3 2 2 3 3 4 5 5 5 4 3 4 6 8 8 7 7 8 10 10 11 12 13 13 14 15 16 18 20 17 13 14
7 7 7 6 5 5 6 6 7 7 7 8 8 9 11 12 12 12 14 15 14 14 14 14 15 15 16 16 17 17 18 18 18 17 17 16 15 14 14 15 15 14 13 12 12 11 10 9 8 7 7 6 3 1 3 5 5 5 5 5 5 5 4 3 4 6 8 8 7 7 9 11 11 12 12 13 13 14 14 14 17 18 15 14 15
Wind_Direction
151 151 153 156 159 164 162 153 154 162 163 163 163 162 165 170 174 175 172 174 173 169 167 161 156 150 145 142 137 133 130 124 119 115 113 115 109 105 104 102 104 104 101 100 99 97 96 93 88 89 94 87 92 110 102 96 104 100 98 91 80 98 113 110 108 105 109 138 138 125 151 162 149 137 118 97 343 170 191 234 335 210 151 63 19
158 157 159 162 165 168 169 165 162 166 170 168 164 166 169 171 176 177 176 179 176 175 177 172 166 161 154 150 147 144 140 133 130 129 124 121 115 110 110 110 111 109 105 110 109 104 104 105 102 102 98 71 73 92 80 82 102 95 90 93 86 97 118 124 128 131 135 147 142 139 157 137 143 160 148 124 76 186 194 226 299 240 185 67 7
162 163 164 167 172 173 175 174 169 167 174 173 168 172 175 175 177 176 177 182 179 181 186 180 175 170 162 160 156 153 151 145 143 144 138 131 125 121 119 120 121 117 115 124 119 111 111 111 107 108 101 71 66 80 62 60 85 93 83 84 79 80 104 127 137 147 154 159 160 153 147 93 126 160 171 152 112 104 158 194 260 180 159 9 344
163 167 168 170 173 172 172 175 173 171 177 178 176 178 180 181 179 173 176 184 183 185 190 186 184 180 173 170 166 163 164 159 156 157 151 147 146 143 140 137 136 133 132 134 127 125 128 124 122 119 109 98 87 95 94 66 85 114 107 105 115 93 78 91 121 143 153 156 155 144 147 170 149 156 189 180 127 150 151 148 128 128 119 355 329
162 165 169 172 174 173 171 176 181 181 180 182 183 182 181 183 178 171 175 185 188 190 191 190 192 189 184 180 176 174 173 169 169 173 168 165 166 162 162 165 163 166 165 150 139 142 145 143 147 143 130 132 118 114 142 92 75 105 105 108 126 122 96 44 57 102 136 135 138 136 168 221 186 166 194 153 38 307 259 109 74 67 46 10 342
161 165 174 177 174 170 174 183 188 186 183 184 184 180 177 179 177 177 181 187 192 193 190 193 197 194 192 190 186 183 184 186 184 184 182 181 183 181 181 183 179 184 193 185 183 184 180 181 167 156 149 153 141 120 132 113 73 83 83 93 110 113 113 85 28 54 98 100 131 143 207 271 335 53 122 92 348 305 280 347 63 37 16 3 351
165 172 177 179 175 174 187 195 192 187 186 186 183 178 177 179 180 184 187 189 194 193 191 199 203 198 197 197 194 189 192 200 204 201 196 188 193 196 195 197 195 197 203 199 208 217 204 208 204 186 181 172 163 148 145 148 111 90 86 98 108 100 95 65 339 35 87 38 115 141 146 262 262 286 316 318 319 327 77 88 53 5 352 348 342
168 174 173 182 183 177 185 193 189 187 191 190 184 168 167 176 184 190 193 191 194 195 196 205 208 205 209 212 218 221 208 218 290 260 224 212 211 209 206 215 219 221 232 234 246 264 286 304 294 202 196 201 183 175 179 186 183 164 125 117 103 77 88 170 331 17 272 272 280 228 276 293 239 224 243 291 306 17 52 45 348 339 337 335 330
177 171 171 188 193 173 173 181 185 184 180 187 202 153 143 168 182 188 197 198 199 202 208 214 213 213 219 220 237 260 248 258 309 283 238 231 224 217 221 239 264 303 300 275 264 260 270 297 294 247 246 245 203 188 190 189 176 165 200 225 283 348 126 218 270 290 284 290 307 287 270 306 286 212 205 224 235 241 306 321 321 326 326 321 315
187 168 167 179 168 159 168 181 188 182 170 182 198 181 170 182 186 181 191 200 197 202 211 220 221 219 216 202 219 283 324 284 251 232 231 238 232 234 250 256 261 277 276 263 262 259 248 253 249 228 236 248 225 214 215 212 206 200 192 187 182 178 178 216 270 299 318 322 328 344 358 339 337 322 162 47 70 130 22 1 342 330 323 316 310
153 140 153 161 150 158 172 178 181 181 177 182 185 177 181 194 196 194 201 211 210 211 213 218 223 223 214 197 212 227 226 233 236 234 239 245 244 252 263 241 242 253 258 258 264 265 248 236 232 221 219 227 233 236 243 242 235 227 212 195 187 187 190 196 232 309 342 348 345 353 5 1 5 28 44 32 51 58 35 15 350 334 326 318 313
120 123 127 139 149 165 176 175 171 165 166 173 174 180 192 199 203 209 218 226 231 231 227 223 225 227 231 238 241 229 219 225 235 243 250 254 257 260 259 256 259 262 266 266 263 254 235 225 220 214 213 224 235 241 244 242 237 233 224 216 211 207 208 215 221 234 314 18 11 5 6 13 24 29 15 355 3 2 352 345 339 331 324 321 316
118 127 119 112 132 147 149 152 153 145 147 156 160 178 198 202 212 222 228 235 238 234 228 224 216 209 224 235 234 228 225 227 234 244 251 253 259 264 264 264 264 262 270 270 248 224 216 216 208 198 202 217 225 228 229 225 227 231 229 232 236 232 227 233 240 245 259 277 316 355 2 10 43 50 3 334 338 339 337 332 324 312 308 308 303
91 98 100 93 104 113 112 120 136 146 157 158 153 162 181 197 210 214 217 225 230 228 226 225 221 215 219 217 208 215 230 234 234 241 248 251 259 264 256 249 253 256 260 245 216 205 201 203 198 188 189 196 191 197 217 225 222 226 233 240 245 246 245 245 248 253 259 266 272 291 310 295 153 79 317 319 328 330 326 316 306 302 303 303 302
53 48 50 56 74 86 90 108 131 145 158 162 163 168 178 187 191 194 203 211 217 221 225 228 229 227 226 227 228 232 238 239 236 239 245 248 252 247 229 223 230 235 221 195 193 193 191 198 197 186 182 179 170 175 188 200 216 220 201 208 228 238 248 254 258 258 257 261 261 249 240 237 232 277 307 316 319 312 301 297 300 304 306 305 305
43 36 33 33 38 44 52 73 94 111 137 157 171 175 179 187 187 192 204 208 210 217 223 229 235 234 228 224 227 232 236 237 238 240 240 233 220 207 200 201 214 220 208 194 191 188 188 187 178 172 172 171 173 178 176 175 202 205 170 162 205 228 246 268 274 265 251 243 234 219 218 233 258 288 303 307 304 298 294 298 303 310 313 309 307
30 27 25 22 23 24 24 30 36 40 54 76 151 162 167 181 189 201 214 211 205 212 219 224 228 231 233 232 231 233 239 240 235 227 218 206 197 191 187 202 224 215 193 181 173 170 169 157 149 160 166 166 174 187 195 191 195 203 193 186 196 214 246 272 270 260 246 236 229 230 241 260 278 293 301 303 303 301 299 298 300 308 312 309 305
17 16 13 11 14 17 16 16 18 17 15 14 22 55 105 159 182 199 215 214 213 220 230 236 234 234 239 240 237 235 237 232 220 208 202 198 196 193 198 222 226 188 165 169 172 168 168 157 145 163 169 165 172 184 199 191 182 194 216 202 193 200 231 255 260 256 251 247 246 252 260 272 286 296 303 307 308 302 296 292 292 296 297 296 296
8 7 3 359 2 10 15 16 14 9 6 9 13 11 2 345 260 197 194 209 223 226 231 240 239 234 233 225 212 210 216 211 202 200 201 201 202 201 211 236 228 175 159 169 176 173 180 180 171 172 173 171 187 196 204 193 177 185 220 214 194 187 207 235 250 263 269 261 262 269 279 290 301 307 311 313 310 302 291 281 276 277 277 278 283
2 359 350 343 345 359 10 12 11 5 359 359 0 354 344 335 325 293 229 225 229 219 209 206 206 207 213 211 202 200 204 204 202 205 208 208 210 211 218 238 237 178 161 162 167 170 176 180 179 180 187 203 220 208 198 189 180 181 184 161 131 125 144 185 183 154 152 285 279 284 295 302 305 310 311 308 302 293 281 271 267 265 263 276 294
350 344 338 334 338 348 353 352 355 351 343 342 343 341 335 329 326 321 303 275 261 247 223 207 201 203 208 204 194 190 197 204 206 209 211 209 209 209 216 235 246 195 177 168 167 174 178 180 183 186 191 202 209 201 192 190 191 179 142 131 126 124 127 148 186 211 274 295 282 282 291 295 291 292 295 296 298 292 280 275 280 272 265 288 313
335 330 329 330 332 335 333 330 331 328 324 324 321 318 314 310 313 315 310 297 286 282 271 233 215 216 210 194 185 191 204 210 210 208 205 205 206 206 212 225 227 196 193 180 166 169 178 180 182 187 191 193 194 192 190 193 198 190 141 122 132 140 145 182 256 275 292 294 285 291 300 302 299 298 301 312 353 14 318 283 298 291 285 304 318
324 324 326 324 322 321 316 312 311 306 303 303 299 297 297 295 297 301 303 300 289 283 283 269 247 241 223 192 185 196 207 210 212 211 204 201 202 201 208 217 201 182 192 186 171 172 178 176 176 183 189 188 187 187 189 194 200 201 200 314 322 313 307 301 273 270 274 277 289 299 300 300 306 319 328 333 350 2 332 313 315 311 307 314 321
321 320 318 315 313 312 308 305 303 298 294 295 292 289 288 286 284 283 284 288 285 276 272 268 258 252 241 218 202 202 205 207 213 215 210 205 204 205 209 215 206 194 192 182 175 178 178 175 174 181 186 185 184 184 184 186 190 193 225 291 305 312 322 329 303 281 277 277 283 287 290 304 328 340 335 320 312 311 314 317 318 315 314 316 318
316 314 313 312 311 311 309 307 305 301 297 294 290 287 285 281 279 278 273 273 275 272 267 266 260 252 247 242 230 211 199 198 204 213 213 208 206 211 214 210 206 208 204 185 180 179 175 172 175 180 184 184 183 184 182 180 184 194 250 283 289 311 346 354 327 315 309 301 296 296 303 322 342 331 319 317 318 320 323 322 318 317 319 322 322
314 312 311 310 307 306 304 303 303 300 297 295 290 286 284 280 277 276 273 270 271 270 266 264 264 261 256 253 253 248 222 194 198 214 223 219 213 214 216 212 209 212 204 185 179 173 167 172 179 180 181 181 181 181 177 176 182 192 221 196 147 118 144 266 308 311 309 309 311 317 325 329 326 325 325 326 327 329 330 328 326 325 325 326 323
317 316 313 310 309 307 304 302 304 302 298 296 295 292 290 289 283 276 274 274 272 272 273 271 268 269 269 262 257 255 239 209 206 216 227 230 225 217 211 207 206 201 182 172 170 164 160 168 176 176 174 174 176 176 172 170 166 137 122 131 131 141 206 254 305 299 287 294 314 333 345 341 333 330 332 335 335 331 330 332 332 331 329 328 324
313 309 307 309 310 307 303 302 305 304 299 294 294 292 290 290 289 287 288 290 289 294 315 325 315 296 287 277 257 247 240 229 218 214 221 229 229 220 211 205 199 188 175 169 166 161 160 165 171 172 171 172 174 172 159 149 145 133 130 146 160 204 242 272 335 323 269 272 318 335 331 325 325 327 328 331 332 331 332 333 332 329 327 326 321
324 315 307 303 300 301 303 299 293 291 290 288 288 286 283 283 284 284 287 293 300 311 326 340 346 349 0 8 347 293 272 249 220 216 233 234 224 220 224 217 203 194 188 184 176 167 164 168 171 170 170 171 171 172 172 161 152 154 175 189 188 205 212 205 339 328 275 299 320 325 317 314 320 326 327 328 328 328 330 329 325 322 318 315 311
325 321 317 313 316 325 326 317 308 304 303 300 297 293 290 286 281 279 278 276 279 286 291 294 298 305 313 321 320 319 312 276 235 228 237 229 218 218 223 218 210 207 200 195 190 181 174 173 173 173 173 171 175 189 194 181 169 177 192 197 198 196 178 157 272 306 330 328 320 308 302 308 318 323 323 324 323 322 322 319 317 313 309 307 306
313 312 314 315 321 330 332 328 328 329 327 322 318 314 308 298 288 287 288 282 278 281 282 282 285 287 286 290 296 298 301 297 273 246 235 226 220 220 214 206 211 220 215 206 200 191 179 173 173 176 177 180 192 202 194 179 174 180 180 178 189 210 223 212 227 270 310 316 311 307 308 316 321 325 327 326 322 319 316 314 314 314 312 312 312
309 307 309 310 316 322 323 325 328 329 328 326 323 323 326 319 309 305 304 301 302 299 288 280 278 280 283 287 287 283 281 283 276 246 229 223 221 220 212 207 212 217 214 206 198 187 179 175 177 182 188 193 199 195 176 165 169 174 169 170 179 184 185 192 215 268 285 277 299 309 313 322 333 337 336 332 326 322 318 316 316 316 313 312 311
312 309 309 311 315 318 319 321 322 321 323 323 320 322 327 327 323 321 317 313 316 319 312 300 290 283 284 287 282 263 249 249 250 239 225 223 225 226 222 217 216 213 206 197 188 179 175 176 180 187 194 193 182 167 159 161 168 170 169 175 177 172 169 169 203 271 237 269 312 314 314 326 333 331 327 324 320 317 316 315 315 313 309 308 310
319 311 309 309 309 309 310 311 312 312 314 316 317 318 320 320 322 326 325 321 320 321 320 317 308 291 277 275 276 263 239 237 243 240 231 227 225 223 222 219 215 210 202 191 180 174 177 185 188 186 183 172 158 153 157 163 165 167 174 177 167 159 154 134 106 127 224 311 307 303 309 317 317 314 314 314 312 309 307 305 306 308 311 313 314
324 318 320 322 320 318 316 312 309 310 313 313 311 310 309 309 312 314 315 316 317 316 314 317 321 309 281 266 266 266 251 243 243 240 237 230 216 212 215 212 203 196 192 185 176 176 182 185 179 167 157 150 152 158 162 164 166 171 177 178 170 155 141 131 123 54 358 331 303 307 323 325 320 316 313 311 308 305 304 307 311 317 319 317 312
332 329 335 341 338 328 322 316 311 311 312 310 307 304 301 300 301 303 302 301 300 302 304 310 327 333 313 282 266 255 240 237 239 239 241 235 216 207 199 183 173 178 188 187 180 184 181 168 150 147 149 148 153 160 163 166 169 171 170 166 161 155 147 138 126 43 9 350 328 334 340 339 336 334 328 322 320 316 317 323 327 327 325 321 318
337 333 338 347 347 336 326 320 315 312 311 309 308 307 302 297 296 296 295 293 288 288 295 301 312 325 321 299 273 248 226 221 226 226 225 219 211 204 189 173 166 173 195 191 65 119 151 147 138 147 153 152 155 162 166 168 172 172 163 154 152 160 163 179 212 194 35 20 356 345 345 345 345 346 343 336 331 330 331 335 336 334 330 326 321
346 343 347 356 356 347 336 329 324 320 319 318 316 312 304 298 296 292 288 285 281 280 285 292 301 317 322 303 271 238 214 204 199 195 191 186 181 178 175 171 168 170 180 185 82 98 125 138 146 149 148 149 157 164 164 166 167 162 155 161 180 182 183 260 239 170 71 32 11 357 352 348 345 345 346 344 345 349 350 346 340 334 327 321 316
5 359 1 3 2 356 347 341 335 331 329 328 324 320 313 306 301 295 288 280 274 274 281 288 301 323 333 310 263 229 206 197 193 186 180 174 169 168 170 173 173 171 173 177 161 132 136 156 165 149 143 149 157 157 156 157 152 149 157 172 180 169 143 53 85 110 72 27 14 2 350 342 340 343 348 351 353 352 346 339 332 328 324 319 316
23 18 14 13 8 4 358 352 347 344 343 340 334 328 325 320 313 304 293 278 266 271 290 306 315 327 331 304 263 234 205 192 192 190 184 180 179 182 185 186 183 177 170 169 175 177 171 164 152 141 140 144 145 143 148 152 152 160 170 158 126 112 91 67 80 90 48 26 15 351 335 337 343 347 349 349 344 340 336 332 329 328 325 321 319
32 29 26 23 16 10 8 5 360 355 354 352 347 341 336 333 329 322 309 292 280 286 307 317 310 310 314 297 263 235 208 193 193 193 190 184 180 180 183 182 178 175 172 171 175 174 160 144 137 135 133 131 129 132 141 148 150 144 132 117 106 97 78 66 67 62 46 36 8 336 337 349 353 349 349 348 342 338 336 333 331 330 327 323 320
41 41 34 29 26 21 18 12 6 3 3 3 2 359 353 348 346 347 341 328 316 300 292 295 295 298 308 298 258 226 214 205 192 185 183 180 174 175 180 177 169 166 168 169 164 154 142 133 129 130 130 130 133 140 142 136 119 110 107 103 104 100 81 64 58 48 41 31 351 340 352 0 353 348 352 352 343 338 337 335 333 330 325 323 323
47 52 42 35 34 33 28 20 15 15 16 16 17 18 18 17 14 15 16 10 355 329 297 295 306 324 328 305 250 223 213 172 155 155 158 160 158 159 164 165 160 153 147 140 137 137 135 130 129 131 132 129 124 120 115 108 100 99 96 94 100 103 89 63 50 36 25 12 355 353 359 356 348 349 356 352 342 338 336 334 331 326 324 328 334
44 51 46 43 41 38 36 34 33 28 24 26 31 34 34 33 28 26 31 37 38 39 36 17 356 5 22 41 93 106 87 88 100 112 119 122 120 117 121 130 134 131 122 115 118 127 134 136 136 133 129 124 118 112 110 110 110 109 108 106 104 96 69 46 36 25 15 5 356 358 359 348 342 347 349 343 339 337 334 332 329 327 329 338 342
41 44 45 49 50 48 46 43 41 38 33 32 35 38 38 39 38 36 36 39 43 48 50 50 53 61 64 68 75 79 79 82 85 87 92 96 96 97 103 109 113 114 114 113 117 122 127 130 130 127 120 114 111 111 114 112 112 119 120 111 93 69 51 39 28 16 6 357 354 359 355 342 335 338 338 335 337 336 333 333 333 334 337 340 338
44 42 44 52 55 55 56 52 49 49 47 44 41 37 35 36 40 44 45 46 50 56 61 66 72 76 75 76 79 83 86 89 88 84 85 88 89 91 96 100 101 101 101 104 110 115 119 122 124 123 118 108 98 95 98 95 95 109 113 89 68 53 37 27 19 10 4 359 355 354 354 356 6 15 354 338 336 336 335 337 339 339 338 337 335
50 43 42 48 49 49 52 54 54 55 56 56 54 48 40 37 40 45 50 53 56 59 63 68 75 79 80 81 86 89 92 94 93 89 87 87 88 89 92 96 98 97 97 101 106 111 115 116 116 120 123 119 113 111 111 110 116 126 89 56 49 32 12 10 10 4 2 4 360 354 360 14 27 23 359 342 338 338 339 339 339 338 335 335 337
67 56 44 43 47 50 49 49 52 55 56 59 58 54 49 48 49 50 53 56 60 62 64 68 73 77 80 84 88 93 97 99 98 94 90 89 92 96 99 100 101 103 105 105 105 106 108 106 105 112 123 126 126 129 133 140 149 122 21 15 8 359 354 354 355 355 360 6 4 3 13 24 22 7 351 343 342 343 342 340 340 340 338 339 345
68 79 71 52 49 56 56 53 55 56 54 55 55 52 51 55 58 58 56 59 63 67 71 73 74 79 84 87 89 93 98 101 100 99 96 93 93 95 97 99 101 101 100 98 96 101 108 109 110 115 116 111 114 137 146 134 74 13 3 357 350 347 341 333 339 352 1 6 9 20 32 30 18 4 354 348 348 348 344 340 342 344 344 349 360
19 51 74 68 60 62 62 62 63 62 58 58 56 53 52 56 61 64 65 65 68 72 75 79 82 85 89 90 90 91 95 98 100 102 103 100 97 95 97 99 99 95 89 82 77 81 90 98 105 114 115 111 116 144 123 54 25 8 3 2 354 346 341 337 340 350 358 3 12 28 33 26 18 9 2 357 353 349 344 343 348 350 353 2 7
10 24 46 55 57 64 69 72 72 70 67 66 63 59 55 55 59 65 69 71 74 76 78 81 85 88 90 91 91 91 93 95 96 98 100 101 103 104 105 106 106 103 99 94 89 87 87 88 93 110 126 133 135 106 42 34 27 20 16 12 4 359 0 357 347 350 359 9 18 26 26 22 15 8 3 0 357 352 349 349 351 353 359 7 5
Height
789 791 793 795 797 799 800 800 802 804 805 807 809 811 813 815 817 819 819 820 821 822 822 822 822 822 822 823 824 825 825 826 827 827 828 829 830 831 832 833 834 835 835 836 836 837 837 837 838 838 838 839 839 839 839 839 839 839 840 840 841 842 843 845 847 850 852 853 854 855 855 856 856 856 857 857 857 857 857 857 857 857 857 858 858
790 792 793 795 797 798 799 800 802 804 805 807 808 810 813 814 816 818 819 820 821 821 822 822 822 822 823 823 824 824 825 826 827 828 829 830 830 832 833 834 835 835 836 837 837 838 838 838 839 839 839 839 839 839 840 840 840 840 841 841 842 843 843 845 847 850 852 853 853 854 855 855 855 856 857 857 857 856 857 857 856 856 856 856 857
791 792 793 795 796 797 798 799 801 803 805 806 807 809 811 813 815 817 818 819 820 821 822 822 823 823 823 824 824 825 825 826 827 828 829 830 831 832 833 834 835 836 837 837 838 839 839 839 840 840 840 840 840 840 840 840 841 841 842 843 843 844 844 845 847 848 850 851 852 853 854 854 854 855 855 856 856 856 857 857 857 856 856 856 856
791 792 793 795 796 797 798 800 802 803 804 805 806 808 810 811 813 815 817 818 819 821 822 822 823 823 823 824 824 825 826 827 828 828 829 830 831 832 834 835 836 836 837 838 838 839 840 840 841 841 841 842 842 842 842 842 842 843 843 844 844 844 845 846 846 847 849 850 851 852 853 854 854 854 854 855 856 856 856 856 857 857 857 856 856
790 791 792 794 795 796 798 798 799 800 801 803 804 806 808 810 812 814 816 818 819 820 821 822 823 823 823 824 825 826 826 827 828 829 830 831 832 833 833 834 836 836 837 838 839 840 841 841 842 842 842 843 843 843 843 843 843 843 843 844 844 845 845 846 847 847 848 849 850 851 852 853 853 853 853 854 855 855 856 856 856 856 857 857 856
789 790 791 792 793 795 796 795 795 797 799 801 803 805 807 809 811 813 815 817 818 819 820 821 822 823 824 824 825 826 827 828 829 830 831 832 832 833 834 834 835 836 837 838 839 840 841 842 842 842 843 844 844 844 844 844 844 844 844 845 845 845 846 847 847 847 848 848 849 850 851 852 852 852 852 853 854 854 854 855 855 855 856 856 856
788 790 791 792 794 795 795 795 796 798 800 802 804 806 808 810 812 813 815 816 818 819 820 821 822 823 824 825 826 827 828 829 831 831 832 833 833 834 834 835 836 836 837 839 840 841 842 843 843 843 844 844 844 845 845 845 845 845 846 846 846 846 847 848 848 848 848 849 850 850 851 851 851 851 852 853 853 853 853 854 855 855 856 855 855
788 789 790 793 796 797 799 801 802 803 804 804 806 807 810 813 814 815 816 817 818 819 820 821 822 823 824 825 826 827 828 829 831 833 834 834 834 834 835 836 837 837 839 839 840 841 843 844 844 844 844 844 844 845 845 846 846 846 847 846 847 847 848 848 848 849 849 849 850 850 850 851 851 851 852 852 852 852 853 854 854 854 854 854 854
790 790 790 793 796 797 799 802 803 804 805 805 807 809 812 814 814 815 817 818 818 819 820 821 822 823 825 825 826 826 827 829 832 835 836 836 835 834 835 836 838 839 840 839 840 841 842 843 844 844 845 845 845 845 845 846 846 846 846 846 847 847 848 848 849 849 849 849 849 849 850 850 850 850 851 851 851 851 852 852 852 852 852 852 853
791 791 793 794 796 796 797 798 800 802 803 804 806 808 810 811 811 812 814 816 818 818 820 821 821 823 824 823 824 825 828 831 833 834 835 834 834 834 834 836 838 839 839 838 839 840 841 842 842 843 844 845 846 845 845 845 846 845 846 846 846 847 848 848 849 849 849 849 849 849 849 850 850 850 851 851 851 851 851 851 851 852 852 851 851
790 791 794 795 796 797 797 797 799 801 802 803 805 807 808 808 809 809 811 813 816 818 819 820 820 821 822 823 824 826 829 831 832 833 833 832 832 833 833 835 837 837 836 836 837 838 840 840 839 840 842 844 845 844 844 844 844 845 845 845 846 846 847 848 848 848 848 848 849 849 849 850 850 850 850 850 850 851 851 851 851 851 851 851 850
792 793 794 796 798 798 798 799 801 803 804 805 806 807 808 809 810 810 811 813 815 817 818 819 819 820 821 822 824 825 827 829 829 831 831 830 831 831 832 833 834 834 834 834 835 836 837 838 838 839 840 841 843 843 842 843 843 843 844 844 845 846 846 847 847 848 848 848 849 849 849 849 849 849 850 850 850 850 850 850 851 851 851 851 850
795 796 796 796 797 798 800 800 801 803 804 805 806 807 808 809 810 811 812 813 815 816 817 817 818 819 820 821 823 824 825 827 827 828 829 829 829 829 830 831 831 832 833 833 834 835 836 836 837 838 840 840 841 841 841 841 842 842 843 844 844 845 846 846 847 847 848 848 849 849 849 849 849 849 850 850 850 850 850 850 851 851 851 850 849
796 797 797 796 797 798 800 801 802 803 804 805 806 807 809 810 811 812 812 813 814 815 816 816 818 819 820 821 822 823 824 824 824 825 826 826 827 827 828 829 830 831 832 832 833 834 835 836 836 838 839 840 840 840 840 841 841 842 843 843 844 844 845 845 846 846 847 847 848 849 849 849 849 849 850 850 850 850 850 850 850 850 850 849 848
798 799 799 798 798 799 800 801 802 804 806 806 807 808 810 811 813 813 813 814 814 815 816 817 818 819 819 819 820 820 821 822 822 822 823 824 825 826 827 828 829 830 831 832 833 834 835 836 836 837 838 838 839 840 840 840 841 841 842 843 843 843 843 844 845 845 846 847 847 848 848 848 849 849 849 849 849 850 850 850 850 849 848 847 846
802 803 802 801 801 801 801 802 803 804 805 806 807 808 810 811 812 813 813 814 814 814 815 816 817 817 818 818 818 818 819 819 819 820 821 822 823 825 826 827 828 829 831 832 833 834 835 835 836 836 837 838 839 839 840 841 841 841 842 842 843 843 843 844 845 845 846 846 847 847 847 848 848 849 849 849 849 849 849 849 848 848 847 846 845
806 807 806 806 805 804 804 804 805 805 806 806 806 807 808 809 810 811 812 812 813 813 814 814 815 815 816 816 816 816 817 817 818 819 820 822 823 824 826 826 827 828 830 831 832 833 834 834 834 835 836 837 838 839 840 840 841 841 841 841 841 842 843 843 844 845 846 846 847 847 847 848 848 848 848 848 848 848 847 847 847 846 846 845 844
811 811 810 810 809 808 808 807 807 807 806 807 807 807 807 808 809 809 810 811 812 812 812 812 812 812 812 813 813 814 815 815 817 819 820 822 823 824 825 826 826 828 829 830 831 832 833 834 834 834 836 837 837 838 839 839 840 840 841 841 841 841 842 843 843 844 845 846 846 847 847 847 847 847 847 847 846 846 846 845 845 845 844 844 843
815 814 814 813 812 812 811 810 809 809 808 808 808 808 808 808 809 809 809 809 810 810 810 810 810 811 812 812 813 814 815 816 817 819 820 821 823 824 824 825 825 826 827 828 830 831 832 833 834 834 835 836 836 837 838 838 839 839 839 840 840 840 841 842 843 844 844 845 845 846 846 846 846 846 846 845 845 845 844 844 844 843 843 842 842
817 816 816 815 814 814 813 812 811 810 810 809 809 809 809 808 809 809 808 808 809 809 809 810 810 811 812 813 813 814 815 816 817 818 819 820 821 822 823 823 824 825 825 827 829 830 831 832 833 834 835 835 836 837 837 838 838 838 839 839 840 841 842 843 843 844 844 845 845 845 845 844 844 844 844 844 844 843 843 843 843 843 842 842 841
817 816 816 815 814 814 813 813 812 811 811 810 810 810 809 809 808 808 808 808 808 808 808 809 810 810 811 812 813 814 814 815 816 817 818 818 819 820 821 822 823 823 824 825 827 828 830 831 832 833 834 835 836 837 837 838 838 838 839 839 840 841 842 843 843 844 844 845 845 844 844 843 843 843 843 843 842 842 842 842 843 843 843 842 841
817 817 816 815 814 813 813 813 812 812 811 811 810 810 810 809 809 808 808 808 807 807 808 808 809 809 809 810 811 813 814 815 816 816 816 817 817 817 819 820 821 821 823 824 825 826 828 829 831 832 833 834 835 836 837 837 838 838 839 839 840 841 842 842 843 843 844 844 844 843 843 843 843 843 843 843 842 841 842 843 843 843 843 842 840
818 816 816 815 814 813 813 812 812 812 811 811 810 810 810 809 809 808 808 807 807 807 807 807 808 808 808 808 809 810 812 813 815 815 815 815 816 816 817 818 819 819 821 822 822 824 826 828 829 831 832 833 834 835 836 837 837 838 839 839 840 841 841 841 842 842 843 843 843 843 842 842 842 842 842 841 841 841 841 842 842 841 840 839 838
817 816 816 815 814 814 813 812 812 811 810 810 810 809 809 809 808 808 808 807 807 806 806 806 806 806 807 807 807 808 809 810 812 814 815 815 815 815 815 816 817 818 819 820 820 822 824 826 828 829 831 832 833 834 835 836 837 837 838 839 839 840 840 841 841 841 842 842 842 842 842 842 841 841 840 840 840 840 840 840 840 839 837 836 836
816 816 815 815 814 814 813 812 811 811 810 810 809 808 808 808 807 807 807 806 806 805 805 805 804 804 805 805 806 806 807 808 810 812 814 814 814 814 814 815 816 816 817 818 819 820 822 824 826 828 830 831 832 833 834 835 835 836 837 838 839 840 840 840 841 841 841 842 842 842 841 841 841 840 840 840 840 840 840 839 838 837 836 835 834
816 815 815 814 814 813 812 811 811 810 810 809 808 808 808 807 806 806 805 805 805 804 803 803 803 803 803 803 804 805 805 805 807 810 813 814 813 813 814 814 814 815 816 817 818 819 821 823 825 827 829 830 831 832 833 834 835 836 836 837 838 839 840 840 840 840 841 842 842 841 841 840 840 840 840 840 840 840 839 838 837 836 835 834 833
816 815 815 814 813 813 812 811 810 810 809 808 808 807 807 806 805 805 804 804 803 802 802 801 801 801 801 802 803 803 803 803 805 808 812 815 814 813 812 813 813 814 815 816 817 818 819 822 824 826 828 829 830 831 832 833 834 835 836 837 838 839 839 839 840 841 841 841 841 841 840 840 840 840 840 840 840 839 839 838 837 836 835 834 833
816 816 815 814 814 813 812 811 810 809 808 808 807 806 806 805 804 803 803 803 802 801 802 801 800 800 800 800 801 801 802 802 803 805 809 813 814 814 813 812 813 813 815 816 817 818 819 821 823 826 827 828 830 831 831 833 833 835 836 837 838 838 839 840 840 840 840 841 840 840 840 840 840 840 839 839 839 839 838 837 837 836 835 835 834
817 816 815 814 814 813 812 811 810 809 808 807 806 806 805 804 804 803 803 802 801 801 801 802 801 801 801 801 802 802 802 802 803 805 807 809 812 814 814 814 814 814 814 816 817 817 819 821 823 825 826 827 829 830 831 832 833 834 836 836 837 838 838 839 840 840 840 840 840 840 840 840 840 839 839 839 839 838 838 837 837 836 836 835 834
818 817 816 814 814 813 812 811 809 808 807 806 805 804 803 803 803 802 802 801 801 800 800 801 801 801 801 802 802 802 802 802 802 804 805 808 810 812 812 813 815 815 816 817 817 817 818 819 822 823 825 827 828 829 830 831 832 834 835 836 837 837 838 839 839 839 839 840 840 840 840 840 839 839 838 838 838 838 838 837 837 836 835 834 833
820 818 817 815 814 813 813 811 810 808 807 806 805 804 802 801 800 800 800 800 800 799 798 798 799 799 800 800 801 801 801 801 801 802 804 806 808 809 808 809 812 813 813 814 816 816 816 818 820 822 824 826 827 828 829 830 832 833 834 835 836 837 838 839 839 839 839 840 840 840 840 839 839 838 838 837 837 837 837 836 836 835 834 833 832
820 819 818 817 815 814 813 812 810 809 808 807 806 805 803 801 799 798 799 799 799 798 797 796 796 796 797 797 798 799 799 799 800 802 803 805 806 807 806 806 807 809 809 810 812 813 814 816 819 821 823 824 825 827 828 829 831 832 833 834 836 836 837 838 838 839 839 839 839 839 839 839 838 837 837 837 836 836 836 835 835 834 833 832 831
821 820 819 818 817 815 814 812 811 810 809 808 807 805 805 803 801 799 798 797 796 797 796 796 795 795 795 795 796 796 798 798 799 800 801 802 803 803 804 804 806 808 809 809 809 810 812 815 818 820 822 823 824 825 827 828 830 832 833 834 835 836 837 837 837 838 838 838 839 839 838 837 837 836 836 836 836 835 835 834 834 833 832 831 830
820 819 818 818 817 816 814 813 812 811 810 809 807 806 805 804 803 802 800 798 796 796 796 796 795 794 794 793 794 794 796 797 797 797 797 797 798 800 802 803 805 807 808 808 808 809 811 814 816 818 820 821 823 825 826 828 830 831 833 834 835 835 836 836 837 837 837 837 838 838 837 836 836 835 835 835 834 834 834 833 832 832 831 830 829
820 819 818 817 816 815 814 813 812 811 810 809 808 807 806 805 803 803 802 801 799 798 797 797 795 794 792 792 792 793 794 795 795 795 795 794 795 796 799 802 804 806 807 807 807 808 810 812 814 816 818 820 822 824 826 828 830 831 832 833 834 835 835 836 836 836 836 836 837 837 836 836 834 834 833 833 833 833 832 831 831 830 830 829 828
819 818 817 817 816 815 814 813 812 811 810 809 808 807 806 805 804 802 801 801 800 799 798 797 796 794 793 792 791 792 793 794 795 795 794 793 793 794 796 799 803 806 808 807 805 806 809 811 812 815 817 820 822 824 826 828 830 831 832 833 833 834 835 835 835 835 836 836 836 836 836 835 834 833 833 832 832 831 831 830 830 829 829 828 827
818 818 817 816 816 815 814 813 812 811 810 809 808 806 805 804 803 802 801 800 799 798 798 797 796 795 793 792 791 792 792 793 794 795 794 794 793 793 795 798 801 806 809 809 807 806 808 810 813 815 818 820 822 825 827 828 830 830 831 832 832 833 834 834 834 835 835 835 835 835 835 834 834 833 832 831 831 831 830 830 829 829 828 827 826
818 817 816 816 815 814 813 813 811 810 809 808 807 806 804 803 802 801 800 798 798 797 797 796 796 795 794 793 792 791 791 792 793 794 794 795 795 794 796 798 800 803 808 811 810 808 809 812 814 816 819 821 823 825 827 828 829 830 831 831 832 833 833 834 834 834 834 834 834 834 834 834 833 832 832 831 831 830 830 829 829 828 827 826 825
817 816 816 816 815 814 814 812 811 810 809 808 806 805 803 802 801 799 798 797 796 796 795 795 795 795 795 794 793 792 792 792 793 794 795 796 796 796 797 799 800 802 806 809 811 811 812 814 816 817 819 821 823 825 827 828 829 830 831 831 831 832 833 833 833 833 833 833 834 834 833 833 833 832 832 831 830 830 829 829 828 827 826 825 823
816 816 816 815 815 814 813 812 811 810 809 807 806 804 803 801 800 798 796 796 795 795 794 794 794 794 795 795 793 792 792 792 793 794 794 795 796 797 797 798 800 803 805 808 810 812 813 815 816 818 820 822 823 825 826 828 829 830 830 831 831 832 832 832 832 832 832 833 833 833 833 832 832 832 832 831 831 830 829 828 827 826 825 824 822
816 816 816 815 815 814 813 813 812 810 809 807 806 804 802 801 799 798 796 796 795 794 794 794 794 794 794 793 792 792 793 793 793 794 794 795 797 798 799 800 801 803 805 808 810 812 814 815 817 819 820 822 824 825 827 828 829 829 829 830 830 831 832 832 831 831 832 832 833 833 832 832 832 832 831 831 830 830 829 828 827 825 824 822 821
816 816 816 816 815 814 813 813 812 811 809 808 806 804 803 801 799 798 797 796 795 794 794 794 793 793 793 792 792 792 793 794 794 794 795 797 799 800 801 803 804 805 807 809 811 812 814 816 817 819 821 823 825 827 828 829 829 828 829 829 830 831 831 831 831 831 831 832 832 832 832 832 832 832 831 830 830 829 828 827 825 824 822 821 819
817 816 816 816 815 814 814 813 812 811 810 808 806 805 803 802 801 799 798 797 796 794 794 794 794 794 793 792 792 793 794 794 795 796 797 799 801 802 802 804 806 808 809 810 811 813 814 816 818 820 822 824 825 826 827 828 828 828 829 830 831 831 831 831 831 831 831 831 832 832 832 832 832 831 831 830 829 828 827 826 824 822 821 820 818
817 816 816 816 816 815 814 814 813 812 811 809 807 806 804 803 802 801 799 798 797 796 795 796 796 796 795 794 794 794 795 795 796 797 799 800 801 801 802 804 806 807 808 810 812 813 815 817 819 822 824 825 826 826 827 828 828 829 830 830 830 831 831 831 830 830 830 831 831 831 831 831 831 831 830 829 829 827 826 824 823 821 820 819 818
817 816 816 816 816 816 815 814 813 813 812 810 809 808 806 805 804 803 802 801 800 798 798 798 798 798 797 796 795 796 796 798 799 801 801 802 803 803 803 804 806 807 809 811 813 815 817 819 821 823 824 826 827 827 828 829 830 830 830 830 830 831 831 830 830 830 830 830 831 831 830 830 830 830 829 829 828 826 825 823 822 821 820 818 817
817 817 817 817 816 816 816 815 814 813 812 811 811 810 808 807 806 806 805 804 803 802 801 801 800 800 799 799 799 800 801 802 804 804 804 805 805 806 806 807 808 810 812 814 815 817 819 820 821 823 825 826 828 829 830 830 831 830 830 830 831 831 830 830 830 830 830 830 830 830 830 829 829 829 828 828 827 826 824 823 821 820 819 817 816
817 817 817 817 817 817 817 816 815 815 814 813 812 812 811 810 809 808 807 807 806 805 805 804 803 803 803 803 804 804 805 807 807 808 808 809 809 810 811 811 812 813 815 817 819 820 821 822 823 824 826 827 828 829 830 831 831 830 830 831 831 830 830 830 830 830 830 830 830 829 829 829 828 828 828 827 826 825 823 822 821 820 818 817 815
816 817 818 818 818 818 817 817 817 816 815 815 814 813 813 812 812 811 810 809 809 808 808 807 807 807 807 807 808 808 809 810 810 811 812 813 813 814 815 815 816 817 819 820 822 822 823 824 824 825 827 828 829 830 830 831 830 831 831 831 831 830 830 830 830 830 830 829 829 829 829 828 828 827 827 826 825 824 823 822 820 819 817 816 815
816 816 817 817 818 818 818 818 817 817 817 817 816 815 815 814 814 813 813 812 812 811 811 811 811 811 811 811 812 812 812 813 813 814 815 816 817 818 818 819 820 821 822 823 824 824 824 825 826 827 828 829 830 830 831 831 831 831 831 830 830 830 830 830 830 829 829 829 829 828 828 828 827 827 826 825 824 824 823 821 820 818 817 815 814
816 816 816 817 818 818 818 818 818 818 818 818 818 817 817 816 816 815 815 815 815 814 814 814 815 815 815 815 815 816 816 816 816 817 818 819 820 821 821 822 823 823 824 825 826 826 827 827 828 828 829 830 830 831 831 831 831 831 830 830 830 830 830 829 829 829 829 829 828 828 828 827 827 826 825 824 824 823 822 821 819 818 816 815 814
817 817 817 817 817 818 818 818 818 819 819 819 819 819 819 818 818 817 817 817 817 817 817 817 817 818 818 818 819 819 819 819 820 820 821 822 822 823 823 823 824 825 826 827 827 828 829 829 829 830 830 831 831 831 831 831 831 830 830 830 830 829 829 829 829 829 829 828 828 828 827 827 826 825 824 824 824 823 822 821 819 818 816 816 815